Location: Newark
(21.8258°S, 114.1586°E)
Time: 12:01:37
(UTC+00:00)

Hubble Space Telescope - Pass Details

Date: 21 December 2019
Orbit: 536 x 540 km, 28.5° (Epoch: 17 January)

Event Time Altitude Azimuth Distance (km) Brightness Sun altitude
Rises 12:56:33 0° 264° (W) 2,681 5.2 -22.7°
Reaches altitude 10° 12:59:08 10° 278° (W) 1,787 4.0 -23.2°
Enters shadow 13:01:46 23° 316° (NW) 1,173 2.5 -23.6°
